User: anonymous   Login
Location: *
(50.2903°S, 172.5375°W)
Time: 15:03:24
(UTC+00:00)
Language:

Cosmos 1758 - Orbit

View from above orbital plane
View from above orbital plane
View from above satellite
View from above satellite

Ground track
Ground track

The orbit data is extracted from the following two-line orbital elements,

1 16791U 86046A   20022.46595503  .00000776  00000-0  52511-4 0  9999
2 16791  82.4699 186.7202 0017718  96.3630 263.9615 15.04988981828431
Epoch (UTC): 22 January 2020 11:10:58
Eccentricity: 0.0017718
inclination: 82.4699°
perigee height: 539 km
apogee height: 564 km
right ascension of ascending node: 186.7202°
argument of perigee: 96.3630°
revolutions per day: 15.04988981
mean anomaly at epoch: 263.9615°
orbit number at epoch: 82843

The dashed part of the orbit path shows where the satellite is in the earth's shadow,  

DLR